Weather History for Milford, UT

Change the Weather History Date:

Thursday, February 6, 2014

  Actual Average Record
Temperature  
Mean Temperature 34 °F -  
Max Temperature 44 °F 40 °F 57 °F (2000)
Min Temperature 25 °F 17 °F 0 °F (2004)
Degree Days  
Heating Degree Days 30    
Moisture  
Dew Point 22 °F    
Average Humidity 63    
Maximum Humidity 89    
Minimum Humidity 34    
Precipitation  
Precipitation 0.00 in - - ()
Sea Level Pressure  
Sea Level Pressure 29.92 in    
Wind  
Wind Speed 16 mph (SSW)    
Max Wind Speed 25 mph    
Max Gust Speed 32 mph    
Visibility 10 miles    
Events Snow    
Averages and records for this station are not official NWS values.
T = Trace of Precipitation, MM = Missing Value Source: NWS Daily Summary

Daily Weather History Graph

Daily Weather History Graph

Search for Another Location

Airport:

Trip Planner

Search our weather history database for the weather conditions in past years. The results will help you decide how hot, cold, wet, or windy it might be!

Date:

Astronomy

Feb. 06, 2014 Rise Set
Actual Time 7:32 AM MST 6:00 PM MST
Civil Twilight 7:04 AM MST 6:27 PM MST
Nautical Twilight 6:33 AM MST 6:59 PM MST
Astronomical Twilight 6:02 AM MST 7:30 PM MST
Moon 11:34 AM MST (2/6) 12:52 AM MST (2/6)
Length of Visible Light 11h 22m
Length of Day
10h 27m
Waxing Crescent, 50% of the Moon is Illuminated
Feb 6
Waxing Crescent
Feb 6
First Quarter
Feb 14
Full
Feb 22
Last Quarter
Mar 1
New

Hourly Weather History & Observations

Time (MST) Temp. Windchill Dew Point Humidity Pressure Visibility Wind Dir Wind Speed Gust Speed Precip Events Conditions
12:52 AM 26.1 °F 14.5 °F 17.1 °F 69% 30.01 in 10.0 mi SSW 13.8 mph - N/A   Clear
1:52 AM 24.1 °F 12.5 °F 16.0 °F 71% 29.99 in 10.0 mi SSW 12.7 mph - N/A   Clear
2:52 AM 25.0 °F 12.6 °F 16.0 °F 69% 29.97 in 10.0 mi SSW 15.0 mph - N/A   Clear
3:52 AM 25.0 °F 13.6 °F 16.0 °F 69% 29.96 in 10.0 mi SSW 12.7 mph - N/A   Clear
4:52 AM 27.0 °F 14.7 °F 17.1 °F 66% 29.96 in 10.0 mi SSW 16.1 mph - N/A   Overcast
5:52 AM 26.1 °F 13.6 °F 17.1 °F 69% 29.99 in 10.0 mi SSW 16.1 mph - N/A   Mostly Cloudy
6:52 AM 28.0 °F 16.5 °F 17.1 °F 63% 29.98 in 10.0 mi SSW 15.0 mph - N/A   Overcast
7:52 AM 28.0 °F 17.5 °F 18.0 °F 66% 30.00 in 10.0 mi SW 12.7 mph - N/A   Overcast
8:52 AM 30.0 °F 19.5 °F 18.0 °F 61% 30.01 in 10.0 mi SSW 13.8 mph - N/A   Overcast
9:52 AM 33.1 °F 23.0 °F 19.0 °F 56% 29.99 in 10.0 mi SSW 15.0 mph - N/A   Overcast
10:52 AM 37.0 °F - 19.9 °F 50% 29.96 in - North - - N/A   Overcast
11:52 AM 39.0 °F 29.9 °F 21.0 °F 49% 29.94 in 10.0 mi SSW 17.3 mph - N/A   Mostly Cloudy
12:52 PM 41.0 °F 30.7 °F 23.0 °F 49% 29.88 in 10.0 mi SSW 25.3 mph - N/A   Mostly Cloudy
1:52 PM 42.1 °F 32.8 °F 23.0 °F 47% 29.86 in 10.0 mi SSW 21.9 mph 28.8 mph N/A   Overcast
2:52 PM 43.0 °F 33.8 °F 21.9 °F 43% 29.85 in 10.0 mi SSW 23.0 mph 32.2 mph N/A   Scattered Clouds
3:52 PM 41.0 °F 31.1 °F 23.0 °F 49% 29.84 in 10.0 mi SSW 23.0 mph - N/A   Overcast
4:52 PM 39.9 °F 30.0 °F 25.0 °F 55% 29.85 in 10.0 mi SSW 21.9 mph 31.1 mph N/A   Overcast
5:52 PM 36.0 °F 27.1 °F 28.9 °F 76% 29.88 in 5.0 mi South 13.8 mph - 0.00 in Snow Light Snow
6:52 PM 34.0 °F 23.8 °F 30.9 °F 89% 29.88 in 6.0 mi South 16.1 mph - 0.00 in Snow Light Snow
7:52 PM 34.0 °F 26.0 °F 30.0 °F 85% 29.88 in 10.0 mi South 10.4 mph - 0.00 in   Mostly Cloudy
8:52 PM 34.0 °F 22.7 °F 28.9 °F 82% 29.88 in 10.0 mi South 19.6 mph - N/A   Overcast
9:52 PM 33.1 °F 22.6 °F 28.9 °F 85% 29.87 in 10.0 mi SSW 16.1 mph - N/A   Overcast
10:52 PM 32.0 °F 22.1 °F 28.0 °F 85% 29.86 in 10.0 mi SSW 13.8 mph - N/A   Clear
11:52 PM 33.1 °F 21.5 °F 28.0 °F 82% 29.85 in 10.0 mi South 19.6 mph - N/A   Partly Cloudy